COSMOS 886 DEB, 9953

Orbit data source: Space-Track

COSMOS 886 DEB, 9953 is space debris in LEO originally from a launch on Mon, 27 Dec 1976 UTC launched from the Tyuratam Missile And Space Complex (TTMTR). Debris objects in space refer to the collection of defunct objects orbiting the Earth. Examples of debris include non-operational satellites, rocket bodies, and fragments generated from explosions, collisions, or faulty payload assembly.

Loading next visibility...
Identifier
9953, 1976-126AT
Orbit
LEO
Country
Flag of CISCIS
Related business
Manufacturer
Unknown
Mission
Spacecraft
Bus & Motor
Unknown
Mass
Unknown
Launch date (UTC)
1976-12-27 (49 years ago)
Launch vehicle
Unknown
Launch site
Tyuratam Missile And Space Complex (TTMTR)
Object type
Payload
Rocket body
Debris
Shape & HBR
Unknown shape, 0.1 m
Radar Cross Section
Small (<0.1 m²)

Expand to show TLE details & history
Last TLE update: 12 hours ago

TLE from 12 hours ago
0 COSMOS 886 DEB
1  9953U 76126AT  26130.03997168  .00001155  00000-0  49990-3 0  9999
2  9953  65.8457 153.2265 0850471 217.4868 136.3860 13.13979426323356
Epoch: 2026-05-10T00:57Z
TLE epoch observation values (Epoch: 2026-05-10T00:57:33.553Z)
Latitude
-0.00001°
Longitude
-89.01207°
Altitude
1,700.698 km
Speed
6.795 km/s
True Right ascension
10h 12m 54s
True Declination
0° 00' 00"
Sunlit
Object was in daylight at epoch
Visualization orbit readout
Latitude
Unknown
Longitude
Unknown
Altitude
Unknown
Speed
Unknown
Apparent Right ascension
Unknown
Apparent Declination
Unknown
Sunlit
N/A
Visualization observer readout
Local Sidereal Time
21:19:05
Azimuth
Unknown
Elevation
Unknown
Doppler factor
Unknown
Orbital elements
Apogee altitude
1,851.387 km
Perigee altitude
561.31 km
Semi-major axis
7,584.485 km
Eccentricity
0.08505
Inclination
65.8457°
RAAN
153.2265°
Arg. of periapsis
217.4868°
True anomaly
142.61471°
Mean anomaly
136.386°
Eccentric anomaly
139.54758°
Mean motion
3.2859 °/min
Orbital period
109.56 mins
BSTAR
0.0004999
Loading maneuver chart data...
Computing Atmospheric mass density...
Loading historical data...
Loading historical data...
Loading historical data...
Loading historical data...
Loading historical data...
Loading historical data...
Loading historical data...

Documentation

Showing up to 5 results
|